TimePDT,TemperatureF,Dew PointF,Humidity,Sea Level PressureIn,VisibilityMPH,Wind Direction,Wind SpeedMPH,Gust SpeedMPH,PrecipitationIn,Events,Conditions,WindDirDegrees,DateUTC
12:53 AM,50.0,43.0,77,30.03,10.0,North,3.5,-,0.01,Rain,Light Rain,360,2014-04-04 07:53:00
1:53 AM,48.9,44.1,83,30.02,10.0,NNW,5.8,-,0.01,Rain,Light Rain,340,2014-04-04 08:53:00
2:32 AM,48.0,44.1,86,30.01,10.0,Calm,Calm,-,0.01,Rain,Light Rain,0,2014-04-04 09:32:00
2:53 AM,48.0,43.0,83,30.01,10.0,Calm,Calm,-,0.01,,Overcast,0,2014-04-04 09:53:00
3:53 AM,48.0,44.1,86,30.01,10.0,NE,3.5,-,0.00,,Overcast,40,2014-04-04 10:53:00
4:53 AM,46.9,43.0,86,30.00,10.0,NNW,3.5,-,0.01,Rain,Light Rain,340,2014-04-04 11:53:00
5:53 AM,46.9,44.1,90,30.00,10.0,North,3.5,-,0.01,,Overcast,350,2014-04-04 12:53:00
6:53 AM,46.9,44.1,90,30.01,10.0,Calm,Calm,-,N/A,,Overcast,0,2014-04-04 13:53:00
7:21 AM,46.9,44.1,90,30.01,9.0,Calm,Calm,-,0.00,Rain,Light Rain,0,2014-04-04 14:21:00
7:29 AM,48.0,44.1,86,30.01,10.0,Calm,Calm,-,0.00,Rain,Light Rain,0,2014-04-04 14:29:00
7:53 AM,48.0,44.1,86,30.02,10.0,North,3.5,-,0.00,,Overcast,360,2014-04-04 14:53:00
8:42 AM,48.0,44.1,86,30.02,10.0,Calm,Calm,-,0.00,Rain,Light Rain,0,2014-04-04 15:42:00
8:53 AM,48.9,44.1,83,30.03,10.0,Calm,Calm,-,0.00,,Overcast,0,2014-04-04 15:53:00
9:53 AM,50.0,43.0,77,30.02,10.0,Calm,Calm,-,N/A,,Overcast,0,2014-04-04 16:53:00
10:53 AM,52.0,43.0,71,30.03,10.0,South,3.5,-,N/A,,Overcast,170,2014-04-04 17:53:00
11:45 AM,53.1,39.9,61,30.02,10.0,Variable,3.5,-,N/A,,Mostly Cloudy,0,2014-04-04 18:45:00
11:53 AM,54.0,41.0,62,30.03,10.0,SSE,6.9,-,N/A,,Mostly Cloudy,150,2014-04-04 18:53:00
12:53 PM,55.0,39.9,57,30.01,10.0,WNW,4.6,-,0.00,,Mostly Cloudy,300,2014-04-04 19:53:00
1:53 PM,57.0,39.0,51,29.99,10.0,Calm,Calm,-,0.00,,Overcast,0,2014-04-04 20:53:00
2:53 PM,59.0,39.0,48,29.97,10.0,SE,4.6,-,0.00,,Overcast,140,2014-04-04 21:53:00
3:53 PM,60.1,37.9,44,29.96,10.0,WSW,3.5,-,N/A,,Overcast,250,2014-04-04 22:53:00
4:53 PM,60.1,37.0,42,29.96,10.0,West,3.5,-,N/A,,Mostly Cloudy,270,2014-04-04 23:53:00
5:53 PM,59.0,37.9,46,29.97,10.0,Variable,6.9,-,N/A,,Mostly Cloudy,0,2014-04-05 00:53:00
6:53 PM,55.9,39.0,53,29.99,10.0,NW,8.1,-,N/A,,Overcast,310,2014-04-05 01:53:00
7:53 PM,55.0,36.0,49,30.01,10.0,North,4.6,-,N/A,,Overcast,350,2014-04-05 02:53:00
8:53 PM,53.1,37.9,57,30.02,10.0,WSW,3.5,-,N/A,,Mostly Cloudy,250,2014-04-05 03:53:00
9:53 PM,52.0,39.9,63,30.04,10.0,West,3.5,-,0.01,Rain,Light Rain,270,2014-04-05 04:53:00
10:53 PM,50.0,44.1,80,30.05,10.0,North,4.6,-,0.01,,Overcast,360,2014-04-05 05:53:00
11:53 PM,50.0,44.1,80,30.06,10.0,Calm,Calm,-,0.00,Rain,Light Rain,0,2014-04-05 06:53:00